Location: Allie Creek
(37.5926°N, 89.8526°W)
Time: 04:25:50
(UTC+00:00)

Cosmos 1844 - Pass Details

Date: 26 September 2023
Orbit: 822 x 867 km, 70.9° (Epoch: 29 November)

Event Time Altitude Azimuth Distance (km) Brightness Sun altitude
Rises 00:14:58 0° 342° (NNW) 3,458 7.2 -5.4°
Reaches altitude 10° 00:17:31 10° 347° (NNW) 2,517 6.4 -5.9°
Maximum altitude 00:23:10 53° 64° (ENE) 1,051 3.9 -7.0°
Drops below altitude 10° 00:28:46 10° 141° (SE) 2,490 5.7 -8.1°
Sets 00:31:16 0° 146° (SE) 3,417 6.5 -8.6°
